Location: Grassland Mountain Observatory
(35.7543°N, 82.8038°W)
Time: 05:45:12
(UTC-05:00)

Envisat - Pass Details

Date: 03 December 2021
Orbit: 764 x 766 km, 98.2° (Epoch: 19 January)

Event Time Altitude Azimuth Distance (km) Brightness Sun altitude
Rises 06:11:45 0° 1° (N) 3,235 6.1 -14.5°
Reaches altitude 10° 06:14:13 10° 353° (N) 2,305 5.2 -14.1°
Maximum altitude 06:18:45 34° 290° (WNW) 1,244 3.6 -13.2°
Drops below altitude 10° 06:23:16 10° 226° (SW) 2,291 5.2 -12.3°
Sets 06:25:44 0° 217° (SW) 3,213 6.0 -11.8°
